Wind_Speed
7 7 7 7 8 8 8 8 9 10 10 9 9 9 8 6 6 5 5 5 3 6 1 2 3 3 2 2 2 3 5 5 5 2 6 6 3 1 1 6 4 6 4 9 17
6 7 7 7 8 8 8 9 9 9 10 10 9 9 8 8 4 3 3 5 5 5 3 4 5 6 5 3 2 7 5 4 5 6 8 7 4 2 6 6 5 8 7 14 19
6 7 7 8 8 8 9 9 9 9 9 10 9 9 9 7 3 2 2 3 4 5 5 5 6 6 5 4 1 1 6 2 3 6 10 10 6 5 8 5 7 11 14 18 18
7 7 7 8 9 9 9 9 10 10 10 9 9 8 8 2 1 3 2 4 6 5 6 6 5 6 5 4 1 5 2 2 5 9 11 10 8 6 10 7 3 5 15 18 19
8 8 8 8 9 9 10 10 10 11 10 10 8 7 5 3 2 1 2 3 3 6 5 5 5 4 5 2 3 6 1 4 8 11 10 6 7 8 8 5 4 7 15 17 18
9 9 9 9 9 9 9 10 10 11 11 10 7 7 5 4 3 3 3 3 3 6 5 3 3 1 1 1 6 3 7 8 5 4 3 9 3 3 3 2 7 10 13 14 18
10 10 10 9 9 9 9 10 11 11 11 9 6 5 6 4 5 5 5 4 4 6 6 4 2 2 1 4 3 7 10 6 4 5 5 10 13 3 4 1 4 9 10 14 17
10 10 11 10 10 9 9 10 11 10 8 7 6 3 4 7 9 7 6 4 4 7 5 3 2 1 4 5 8 8 7 11 9 5 4 7 7 6 3 2 4 8 10 15 15
10 11 10 11 10 9 8 9 11 9 6 5 4 3 3 7 8 9 7 3 5 7 3 4 1 2 4 7 7 8 12 3 2 3 6 3 10 5 2 2 5 9 11 14 13
10 10 10 9 9 7 7 8 10 8 6 5 5 4 6 4 7 10 9 8 6 9 5 3 4 6 5 7 6 4 7 5 7 2 6 5 7 3 1 4 5 10 11 14 12
9 9 9 8 7 5 5 6 4 2 6 5 1 2 5 4 7 9 9 8 9 11 7 5 7 5 4 1 3 2 5 7 6 3 7 4 8 6 2 6 7 9 12 14 13
10 9 8 7 5 4 2 1 1 2 7 8 12 8 5 6 7 13 12 11 12 10 6 6 8 2 3 4 6 8 7 7 5 2 7 6 10 4 3 4 5 9 12 16 15
10 9 7 6 4 5 4 3 1 5 7 4 7 9 8 10 8 18 18 10 11 10 10 9 7 4 8 8 9 8 8 2 6 7 7 6 14 5 5 4 5 8 12 16 16
10 9 6 4 2 5 4 3 2 3 5 8 6 6 10 9 8 14 20 10 6 10 5 7 7 8 6 6 8 7 2 4 7 7 6 3 7 5 2 3 7 11 14 16 16
11 8 6 4 4 4 7 4 1 1 6 6 6 5 10 16 12 12 19 11 8 7 7 6 9 12 10 8 9 4 1 6 7 10 6 9 7 2 4 3 1 9 13 13 15
11 9 5 5 5 8 7 4 2 5 5 6 6 9 13 15 8 13 17 9 2 6 7 2 2 5 5 5 8 3 7 7 7 9 10 1 5 4 2 3 1 2 10 14 14
10 9 6 6 4 8 10 5 6 6 3 7 6 8 12 13 10 15 18 16 10 8 11 11 13 7 10 10 9 10 10 8 7 7 4 3 6 6 4 2 5 2 9 14 13
10 7 7 8 10 10 9 7 7 0 2 3 2 5 11 13 11 11 16 16 17 8 2 7 8 11 9 14 9 12 14 10 7 8 2 5 5 2 1 3 4 4 7 15 15
9 6 5 8 12 14 12 9 3 3 2 1 3 9 7 10 6 12 14 16 13 15 6 6 5 6 6 1 7 8 9 11 10 7 9 7 3 8 4 4 5 5 12 15 14
6 2 2 8 13 11 10 9 2 1 1 2 6 4 8 12 10 13 14 9 11 12 16 2 4 7 4 4 5 7 2 7 9 8 8 5 3 2 4 5 6 6 12 12 11
3 4 3 8 15 11 10 7 4 5 1 2 3 4 2 5 8 14 13 6 6 12 16 9 7 8 6 10 8 8 10 8 7 5 8 5 5 5 3 1 6 9 14 15 15
1 3 4 16 10 7 9 4 3 8 4 2 1 1 1 2 6 7 9 1 3 9 8 14 7 9 12 4 5 8 10 9 8 11 9 8 4 6 2 2 6 12 17 16 15
1 3 2 5 6 9 3 7 4 8 5 4 4 2 1 3 4 3 5 5 2 6 10 9 7 9 10 10 7 11 12 13 9 7 9 9 8 6 4 4 6 14 19 19 18
2 3 4 6 1 6 7 9 9 3 4 4 2 4 4 5 1 4 8 6 2 1 3 6 5 10 11 7 5 14 13 14 14 11 10 10 10 4 5 5 9 15 18 20 20
2 2 3 5 5 4 7 3 11 7 5 7 6 8 7 7 8 6 4 5 5 3 2 5 7 10 12 9 7 13 7 13 15 17 7 3 3 6 4 3 7 15 20 22 21
3 2 2 2 2 5 4 4 7 5 6 9 10 6 8 9 7 7 2 3 2 4 3 3 6 6 11 7 8 11 13 11 15 10 10 8 7 7 3 2 8 18 22 23 23
4 2 3 5 6 8 7 7 6 3 4 2 1 7 8 2 4 7 7 8 8 4 2 3 6 7 13 3 8 10 13 14 17 14 13 12 4 3 2 1 7 16 21 23 23
Wind_Direction
10 6 12 7 3 2 6 2 359 358 352 355 350 349 343 333 317 306 300 239 241 237 307 142 187 207 200 234 295 264 180 144 119 47 39 77 338 175 223 144 164 160 114 136 159
4 356 358 356 353 352 356 352 348 350 345 342 343 345 341 336 342 18 298 246 241 180 136 151 172 179 194 216 244 264 155 69 35 18 349 350 326 173 215 164 180 159 142 149 154
354 348 348 346 345 346 344 343 339 340 339 335 333 341 342 346 110 47 348 174 172 155 158 142 162 193 206 224 46 340 61 63 44 353 332 326 313 225 239 217 203 192 169 164 165
336 339 341 338 337 337 335 333 332 331 330 327 328 336 343 46 8 356 77 135 152 137 142 140 170 192 221 208 312 255 47 336 327 321 320 321 327 270 246 276 70 174 171 173 174
329 330 331 331 329 328 329 327 326 324 320 317 323 327 340 282 82 17 112 131 137 127 142 146 167 187 209 234 254 252 6 293 301 305 304 298 283 286 279 270 191 161 171 183 176
321 322 324 321 321 317 317 319 318 318 313 306 312 312 322 244 212 201 149 130 136 141 136 123 139 134 212 246 275 355 293 284 297 350 294 296 312 257 103 23 200 188 191 186 178
314 314 316 314 313 312 314 313 315 315 309 299 294 295 287 287 202 182 169 167 153 153 153 119 76 252 292 244 299 281 277 246 205 348 27 319 238 241 326 254 176 183 184 176 176
309 309 312 312 309 309 310 311 315 313 308 295 274 277 266 237 200 185 177 192 162 156 143 129 3 274 272 293 250 265 256 257 93 321 86 311 23 50 338 201 185 152 167 168 172
309 309 308 307 307 306 302 306 309 302 299 289 270 213 220 216 200 198 173 171 158 162 150 131 323 277 242 258 246 219 259 209 276 19 342 299 332 69 329 213 187 159 170 174 173
310 308 306 303 302 299 297 305 301 284 267 265 238 233 225 185 191 187 182 159 160 168 164 201 231 242 217 235 263 280 239 208 261 44 316 289 304 358 290 233 198 168 179 180 182
312 306 305 299 294 286 298 314 293 269 228 246 134 283 147 157 167 176 173 162 165 185 203 194 242 215 6 320 327 280 276 276 264 54 307 336 300 307 297 221 196 173 185 178 183
312 307 303 294 280 243 247 268 124 270 282 238 232 236 199 171 168 179 173 192 188 200 183 203 229 81 178 185 236 251 266 260 260 141 293 301 297 312 202 230 218 187 193 191 191
313 307 301 293 257 200 178 192 339 351 255 195 202 216 203 190 194 186 182 200 212 205 208 260 58 188 196 192 222 229 263 329 306 309 236 281 257 220 159 213 190 205 201 203 202
313 307 302 297 179 197 193 217 340 2 257 143 182 186 190 192 220 192 191 188 206 229 200 248 161 173 196 216 233 225 157 279 282 283 301 314 300 189 209 240 187 209 209 199 200
313 303 297 248 227 165 211 218 311 278 235 130 139 165 176 188 129 188 188 202 227 181 212 113 186 201 224 236 209 75 305 305 302 276 301 215 265 180 212 206 117 207 206 196 199
313 298 283 259 232 210 195 198 219 227 208 138 137 178 169 194 170 149 176 208 217 182 225 233 149 216 224 174 209 116 260 248 264 266 253 252 273 258 334 25 223 225 197 194 192
310 293 267 231 199 196 182 176 215 238 142 150 152 185 189 180 168 173 182 192 194 196 214 215 223 210 229 219 202 242 238 252 234 210 263 92 249 296 325 270 294 257 184 185 182
311 286 258 228 203 184 175 212 231 160 152 97 167 193 198 180 185 183 186 202 220 236 176 217 177 193 183 230 253 216 238 259 275 271 192 162 256 101 197 281 260 200 176 178 180
317 291 238 218 195 174 198 214 228 158 84 172 155 206 167 183 234 186 199 207 203 215 239 192 201 150 185 184 216 166 226 256 265 243 268 263 202 240 240 240 216 182 164 170 170
327 161 235 203 183 175 213 236 180 132 142 207 230 256 182 181 195 199 186 208 205 209 234 118 242 171 165 186 192 269 130 206 224 263 262 160 256 313 194 192 142 161 158 151 158
125 197 307 169 162 194 214 210 199 171 113 240 190 197 165 184 232 197 186 128 192 196 221 218 248 148 196 211 237 185 230 237 305 303 292 221 184 80 260 309 155 163 161 160 159
94 204 159 148 190 210 217 207 188 167 182 158 222 274 194 178 182 200 185 64 132 162 190 210 236 244 245 106 278 266 256 220 245 194 236 297 302 137 197 133 175 164 167 163 159
32 101 149 175 210 203 147 177 205 183 186 189 174 266 206 175 187 199 167 113 128 203 177 170 215 225 210 200 197 220 223 225 249 287 265 267 253 155 189 184 177 174 165 164 156
271 170 156 195 324 276 188 196 172 174 177 216 154 224 212 210 171 162 167 157 23 249 313 220 215 251 277 24 352 203 225 212 222 242 246 227 280 271 225 211 169 180 168 167 161
324 77 341 183 158 177 209 205 208 177 215 212 201 236 221 220 216 205 195 187 175 119 184 220 246 229 256 278 266 273 241 204 220 239 256 324 226 269 73 347 180 180 172 173 167
334 300 194 140 179 202 165 182 199 165 218 180 233 189 210 235 247 203 253 216 57 174 204 195 257 259 259 234 255 248 246 232 213 250 257 281 276 38 47 33 164 175 180 181 175
20 6 293 142 186 221 195 169 178 188 168 33 106 231 207 136 313 302 282 278 283 302 271 251 264 238 254 170 254 241 241 238 227 230 244 247 252 67 293 325 176 187 191 187 182
Height
1534 1534 1532 1532 1531 1529 1528 1527 1526 1524 1523 1521 1521 1518 1518 1517 1516 1516 1516 1518 1517 1518 1520 1520 1521 1523 1523 1522 1521 1518 1508 1517 1515 1512 1512 1512 1512 1518 1519 1520 1522 1523 1525 1528 1531
1534 1534 1533 1532 1531 1529 1527 1526 1526 1525 1523 1522 1520 1519 1518 1516 1516 1516 1517 1515 1516 1518 1521 1522 1523 1523 1521 1520 1519 1511 1502 1511 1511 1512 1512 1513 1515 1515 1517 1519 1522 1524 1526 1528 1530
1534 1534 1533 1532 1531 1529 1528 1526 1526 1525 1523 1521 1520 1518 1517 1516 1516 1518 1516 1516 1516 1518 1520 1522 1523 1523 1520 1519 1518 1513 1507 1514 1514 1515 1515 1512 1511 1514 1512 1513 1514 1520 1525 1528 1530
1535 1533 1532 1531 1530 1529 1528 1526 1525 1524 1522 1521 1519 1518 1517 1516 1514 1516 1516 1516 1517 1518 1522 1523 1523 1522 1518 1516 1519 1515 1516 1518 1516 1516 1515 1512 1512 1510 1511 1511 1515 1519 1523 1526 1529
1534 1533 1532 1531 1530 1528 1526 1525 1524 1523 1522 1520 1519 1518 1518 1518 1518 1517 1517 1517 1518 1520 1523 1524 1523 1522 1517 1519 1519 1516 1517 1518 1516 1515 1514 1513 1511 1510 1509 1512 1515 1519 1521 1525 1529
1532 1531 1531 1530 1528 1528 1526 1524 1524 1522 1520 1520 1518 1518 1518 1518 1517 1516 1517 1518 1520 1521 1523 1524 1524 1524 1522 1520 1519 1519 1518 1516 1514 1513 1513 1511 1507 1511 1510 1512 1514 1517 1521 1524 1527
1531 1530 1529 1528 1527 1526 1524 1524 1522 1521 1519 1519 1518 1518 1518 1519 1516 1516 1518 1519 1520 1522 1524 1524 1525 1524 1523 1519 1521 1518 1515 1509 1508 1510 1508 1510 1502 1505 1509 1511 1512 1516 1519 1523 1526
1529 1528 1527 1525 1524 1523 1522 1521 1520 1519 1518 1518 1518 1517 1518 1515 1515 1516 1518 1519 1520 1521 1524 1523 1524 1523 1522 1521 1516 1512 1510 1510 1503 1509 1510 1510 1504 1505 1508 1509 1510 1515 1519 1523 1526
1527 1526 1525 1524 1523 1522 1521 1520 1519 1517 1517 1517 1517 1518 1516 1514 1515 1516 1518 1521 1521 1522 1523 1523 1524 1522 1520 1515 1512 1508 1512 1509 1509 1510 1509 1508 1506 1505 1507 1509 1510 1516 1519 1522 1526
1525 1524 1523 1522 1521 1520 1519 1518 1516 1515 1515 1516 1516 1521 1515 1514 1515 1515 1517 1520 1522 1524 1525 1524 1522 1517 1515 1513 1518 1511 1512 1508 1515 1507 1507 1505 1502 1500 1507 1508 1509 1513 1518 1521 1525
1523 1522 1521 1520 1519 1518 1518 1517 1518 1516 1513 1511 1512 1512 1512 1513 1513 1516 1518 1520 1522 1522 1518 1522 1518 1514 1514 1514 1514 1515 1515 1515 1508 1509 1511 1505 1505 1498 1505 1505 1507 1512 1517 1519 1522
1521 1520 1519 1518 1517 1517 1517 1518 1516 1517 1512 1508 1509 1510 1511 1512 1513 1516 1518 1520 1519 1516 1519 1520 1515 1512 1518 1518 1518 1515 1516 1512 1506 1509 1510 1503 1502 1495 1501 1503 1505 1509 1514 1516 1520
1518 1517 1517 1516 1515 1516 1516 1516 1515 1514 1512 1506 1506 1507 1511 1513 1510 1512 1516 1516 1515 1514 1515 1512 1513 1516 1517 1517 1518 1513 1514 1512 1514 1507 1503 1506 1499 1496 1496 1503 1506 1508 1510 1512 1516
1516 1515 1514 1514 1517 1514 1516 1514 1514 1513 1502 1498 1501 1503 1507 1510 1509 1510 1513 1516 1515 1512 1514 1512 1511 1516 1516 1515 1513 1512 1510 1513 1511 1511 1511 1504 1515 1495 1492 1495 1501 1502 1505 1508 1513
1514 1513 1512 1513 1513 1515 1514 1513 1513 1513 1508 1496 1500 1502 1504 1504 1502 1508 1512 1515 1510 1512 1515 1510 1513 1516 1517 1511 1510 1508 1512 1512 1510 1508 1510 1501 1511 1490 1490 1490 1494 1497 1501 1507 1512
1511 1510 1510 1510 1511 1511 1512 1513 1514 1509 1507 1494 1496 1498 1501 1501 1502 1507 1511 1514 1511 1512 1512 1507 1512 1510 1506 1510 1510 1511 1512 1509 1507 1504 1518 1503 1510 1492 1489 1492 1493 1497 1500 1505 1510
1508 1507 1507 1508 1511 1509 1511 1514 1508 1504 1492 1493 1491 1492 1490 1495 1498 1500 1505 1507 1507 1519 1514 1505 1505 1506 1509 1510 1509 1512 1511 1520 1520 1515 1516 1505 1511 1496 1487 1490 1493 1494 1499 1505 1509
1505 1504 1504 1505 1506 1508 1511 1511 1511 1491 1493 1495 1493 1492 1492 1489 1492 1496 1500 1504 1500 1503 1504 1508 1514 1504 1503 1504 1502 1506 1505 1513 1530 1519 1509 1506 1512 1493 1488 1491 1493 1496 1499 1503 1508
1503 1502 1502 1502 1504 1507 1511 1504 1491 1493 1495 1494 1493 1493 1491 1491 1491 1494 1494 1495 1495 1500 1507 1505 1506 1500 1501 1502 1503 1504 1514 1495 1507 1503 1515 1494 1492 1484 1485 1487 1491 1493 1497 1503 1508
1501 1502 1502 1501 1503 1507 1505 1495 1494 1498 1497 1497 1494 1492 1489 1489 1491 1491 1492 1488 1493 1495 1497 1496 1510 1495 1497 1501 1502 1502 1494 1511 1503 1523 1527 1499 1504 1494 1487 1484 1488 1494 1498 1504 1509
1500 1501 1501 1500 1504 1507 1495 1490 1497 1500 1498 1496 1494 1492 1489 1490 1484 1485 1488 1493 1492 1492 1495 1494 1503 1500 1499 1498 1494 1503 1502 1499 1493 1497 1505 1510 1496 1479 1483 1481 1486 1493 1498 1504 1508
1501 1497 1502 1502 1504 1498 1492 1496 1501 1496 1499 1497 1497 1495 1491 1494 1489 1487 1490 1486 1495 1493 1497 1494 1497 1503 1495 1487 1491 1489 1490 1491 1501 1508 1496 1499 1491 1474 1479 1484 1488 1492 1497 1503 1507
1502 1502 1504 1503 1494 1496 1499 1497 1497 1496 1496 1496 1496 1498 1497 1494 1497 1492 1491 1495 1495 1492 1493 1497 1497 1505 1500 1493 1493 1493 1489 1491 1492 1496 1498 1504 1489 1473 1479 1485 1489 1491 1496 1502 1506
1504 1497 1503 1504 1502 1495 1496 1494 1495 1500 1497 1498 1497 1499 1497 1495 1496 1495 1493 1494 1496 1494 1497 1497 1492 1494 1490 1490 1481 1492 1485 1485 1491 1495 1486 1487 1482 1473 1474 1479 1488 1490 1497 1502 1505
1504 1501 1502 1496 1499 1498 1500 1496 1493 1496 1498 1499 1499 1498 1497 1498 1496 1495 1495 1493 1495 1498 1496 1495 1498 1488 1484 1481 1484 1482 1479 1483 1488 1483 1488 1474 1480 1473 1475 1481 1483 1489 1495 1499 1503
1505 1502 1504 1502 1503 1500 1501 1496 1494 1496 1496 1496 1496 1497 1499 1498 1495 1493 1499 1496 1491 1494 1493 1496 1497 1491 1489 1478 1482 1486 1479 1476 1479 1477 1479 1477 1478 1474 1481 1483 1484 1488 1493 1496 1500
1507 1506 1506 1503 1502 1499 1494 1497 1498 1501 1501 1498 1501 1499 1499 1499 1506 1505 1505 1504 1502 1503 1497 1497 1491 1494 1492 1479 1482 1492 1479 1474 1473 1473 1475 1479 1473 1475 1477 1481 1485 1488 1491 1494 1498